| time (UTC) | temp F | wind direction | speed knots | gust knots | rain 1hr in | rain 24hr in | rain mn in | humidity % | barometer mb |
| 20260507224135 | 57 | 314 | 2.6 | 6.1 | 0.00 | 0.19 | 0.05 | 36 | 1005.1 |
| 20260507223534 | 57 | 348 | 1.7 | 5.2 | 0.00 | 0.19 | 0.05 | 35 | 1005.0 |
| 20260507223034 | 58 | 301 | 2.6 | 8.7 | 0.00 | 0.19 | 0.05 | 36 | 1004.9 |
| 20260507222535 | 58 | 289 | 2.6 | 9.6 | 0.00 | 0.19 | 0.05 | 35 | 1004.9 |
| 20260507222037 | 59 | 320 | 1.7 | 9.6 | 0.00 | 0.19 | 0.05 | 34 | 1004.9 |
| 20260507221534 | 59 | 307 | 2.6 | 6.1 | 0.00 | 0.19 | 0.05 | 34 | 1004.9 |
| 20260507221033 | 59 | 327 | 2.6 | 7.0 | 0.00 | 0.19 | 0.05 | 33 | 1004.9 |
| 20260507220532 | 59 | 317 | 1.7 | 7.0 | 0.00 | 0.19 | 0.05 | 33 | 1004.8 |
| 20260507220035 | 59 | 294 | 3.5 | 7.8 | 0.00 | 0.19 | 0.05 | 32 | 1004.8 |
| 20260507215533 | 60 | 313 | 3.5 | 7.8 | 0.00 | 0.26 | 0.05 | 32 | 1004.7 |
| 20260507215034 | 60 | 287 | 4.3 | 7.8 | 0.00 | 0.26 | 0.05 | 33 | 1004.8 |
| 20260507214531 | 60 | 346 | 0.0 | 7.0 | 0.00 | 0.26 | 0.05 | 34 | 1004.8 |
| 20260507214033 | 60 | 271 | 0.9 | 7.0 | 0.00 | 0.26 | 0.05 | 33 | 1004.7 |
| 20260507213531 | 60 | 306 | 3.5 | 7.0 | 0.00 | 0.26 | 0.05 | 34 | 1004.7 |
| 20260507213030 | 60 | 276 | 2.6 | 7.8 | 0.00 | 0.26 | 0.05 | 32 | 1004.7 |
| 20260507212531 | 60 | 267 | 1.7 | 10.4 | 0.00 | 0.26 | 0.05 | 33 | 1004.6 |
| 20260507212029 | 60 | 236 | 3.5 | 9.6 | 0.00 | 0.26 | 0.05 | 36 | 1004.6 |
| 20260507211530 | 60 | 355 | 4.3 | 8.7 | 0.00 | 0.26 | 0.05 | 34 | 1004.6 |
| 20260507211029 | 60 | 320 | 1.7 | 5.2 | 0.00 | 0.26 | 0.05 | 35 | 1004.6 |
| 20260507210529 | 60 | 240 | 0.9 | 6.1 | 0.00 | 0.26 | 0.05 | 38 | 1004.5 |
| 20260507210042 | 60 | 184 | 1.7 | 6.1 | 0.00 | 0.26 | 0.05 | 35 | 1004.5 |
| 20260507205528 | 60 | 20 | 0.9 | 4.3 | 0.00 | 0.32 | 0.05 | 36 | 1004.4 |
| 20260507205027 | 60 | 309 | 0.0 | 6.1 | 0.00 | 0.32 | 0.05 | 34 | 1004.4 |
| 20260507204527 | 60 | 322 | 3.5 | 6.1 | 0.00 | 0.32 | 0.05 | 34 | 1004.4 |
| 20260507204030 | 59 | 288 | 0.9 | 4.3 | 0.00 | 0.32 | 0.05 | 39 | 1004.3 |
| 20260507203527 | 59 | 319 | 0.9 | 7.8 | 0.00 | 0.32 | 0.05 | 36 | 1004.3 |
| 20260507203027 | 59 | 248 | 2.6 | 7.8 | 0.00 | 0.32 | 0.05 | 37 | 1004.2 |
| 20260507202526 | 60 | 281 | 0.9 | 7.0 | 0.00 | 0.32 | 0.05 | 37 | 1004.3 |
| 20260507202128 | 60 | 331 | 2.6 | 6.1 | 0.00 | 0.32 | 0.05 | 34 | 1004.3 |
| 20260507201526 | 61 | 284 | 2.6 | 6.1 | 0.00 | 0.32 | 0.05 | 34 | 1004.2 |
| 20260507201027 | 62 | 296 | 0.9 | 7.0 | 0.00 | 0.32 | 0.05 | 35 | 1004.2 |
| 20260507200525 | 61 | 317 | 1.7 | 7.8 | 0.00 | 0.32 | 0.05 | 35 | 1004.2 |
| 20260507200027 | 62 | 310 | 3.5 | 7.8 | 0.00 | 0.32 | 0.05 | 33 | 1004.3 |
| 20260507195525 | 64 | 5 | 1.7 | 7.8 | 0.00 | 0.36 | 0.05 | 34 | 1004.2 |
| 20260507195024 | 64 | 305 | 3.5 | 6.1 | 0.00 | 0.36 | 0.05 | 34 | 1004.2 |
| 20260507194528 | 64 | 262 | 2.6 | 6.1 | 0.00 | 0.36 | 0.05 | 33 | 1004.2 |
| 20260507194023 | 64 | 308 | 2.6 | 7.8 | 0.00 | 0.36 | 0.05 | 32 | 1004.2 |
| 20260507193522 | 63 | 279 | 1.7 | 7.8 | 0.00 | 0.36 | 0.05 | 37 | 1004.3 |
| 20260507193025 | 62 | 284 | 1.7 | 7.0 | 0.00 | 0.36 | 0.05 | 33 | 1004.3 |
| 20260507192522 | 63 | 336 | 1.7 | 7.0 | 0.00 | 0.36 | 0.05 | 35 | 1004.4 |
| 20260507192023 | 62 | 343 | 2.6 | 7.0 | 0.00 | 0.36 | 0.05 | 37 | 1004.4 |
| 20260507191521 | 62 | 280 | 1.7 | 6.1 | 0.00 | 0.36 | 0.05 | 36 | 1004.4 |
| 20260507191021 | 62 | 267 | 1.7 | 4.3 | 0.00 | 0.36 | 0.05 | 34 | 1004.5 |
| 20260507190521 | 63 | 285 | 1.7 | 6.1 | 0.00 | 0.36 | 0.05 | 34 | 1004.6 |
| 20260507190023 | 64 | 302 | 2.6 | 9.6 | 0.00 | 0.36 | 0.05 | 32 | 1004.6 |
| 20260507185520 | 64 | 319 | 2.6 | 9.6 | 0.00 | 0.52 | 0.05 | 32 | 1004.5 |
| 20260507185025 | 63 | 275 | 2.6 | 7.0 | 0.00 | 0.52 | 0.05 | 31 | 1004.5 |
| 20260507184519 | 63 | 235 | 3.5 | 6.1 | 0.00 | 0.52 | 0.05 | 34 | 1004.5 |
| 20260507184019 | 64 | 265 | 3.5 | 7.0 | 0.00 | 0.52 | 0.05 | 34 | 1004.5 |
| 20260507183520 | 63 | 217 | 2.6 | 8.7 | 0.00 | 0.52 | 0.05 | 32 | 1004.4 |
| 20260507183024 | 64 | 245 | 3.5 | 7.8 | 0.00 | 0.52 | 0.05 | 35 | 1004.5 |
| 20260507182517 | 64 | 292 | 3.5 | 7.8 | 0.00 | 0.52 | 0.05 | 33 | 1004.6 |
| 20260507182016 | 64 | 205 | 1.7 | 5.2 | 0.00 | 0.52 | 0.05 | 36 | 1004.5 |
| 20260507181514 | 63 | 298 | 2.6 | 6.1 | 0.00 | 0.52 | 0.05 | 35 | 1004.6 |
| 20260507181015 | 62 | 315 | 2.6 | 7.8 | 0.00 | 0.52 | 0.05 | 45 | 1004.7 |
| 20260507180514 | 62 | 228 | 5.2 | 7.8 | 0.00 | 0.52 | 0.05 | 42 | 1004.8 |
| 20260507180016 | 62 | 294 | 3.5 | 7.0 | 0.00 | 0.53 | 0.05 | 49 | 1004.8 |
| 20260507175513 | 62 | 298 | 3.5 | 7.0 | 0.00 | 0.53 | 0.05 | 50 | 1004.7 |
| 20260507175014 | 60 | 298 | 3.5 | 6.1 | 0.00 | 0.53 | 0.05 | 52 | 1004.8 |
| 20260507174513 | 60 | 302 | 2.6 | 7.0 | 0.00 | 0.53 | 0.05 | 48 | 1004.8 |
| 20260507174013 | 60 | 288 | 3.5 | 7.0 | 0.00 | 0.53 | 0.05 | 47 | 1004.7 |
| 20260507173514 | 60 | 223 | 4.3 | 6.1 | 0.00 | 0.53 | 0.05 | 52 | 1004.8 |
| 20260507173012 | 60 | 207 | 1.7 | 7.0 | 0.00 | 0.53 | 0.05 | 49 | 1004.8 |
| 20260507172512 | 60 | 228 | 4.3 | 7.8 | 0.00 | 0.53 | 0.05 | 47 | 1004.8 |
| 20260507172011 | 61 | 282 | 2.6 | 7.8 | 0.00 | 0.53 | 0.05 | 47 | 1004.7 |
| 20260507171511 | 62 | 271 | 1.7 | 6.1 | 0.00 | 0.53 | 0.05 | 46 | 1004.6 |
| 20260507171010 | 62 | 207 | 0.9 | 6.1 | 0.00 | 0.53 | 0.05 | 47 | 1004.8 |
| 20260507170510 | 62 | 301 | 1.7 | 5.2 | 0.00 | 0.53 | 0.05 | 50 | 1004.8 |
| 20260507170012 | 60 | 225 | 1.7 | 4.3 | 0.00 | 0.53 | 0.05 | 53 | 1004.9 |
| 20260507165509 | 60 | 227 | 1.7 | 4.3 | 0.00 | 0.53 | 0.05 | 50 | 1004.9 |
| 20260507165009 | 60 | 296 | 1.7 | 6.1 | 0.00 | 0.53 | 0.05 | 49 | 1005.0 |
| 20260507164507 | 60 | 260 | 1.7 | 6.1 | 0.00 | 0.53 | 0.05 | 52 | 1005.1 |
| 20260507164007 | 60 | 277 | 0.9 | 6.1 | 0.00 | 0.53 | 0.05 | 53 | 1005.2 |
| 20260507163506 | 61 | 269 | 1.7 | 6.1 | 0.00 | 0.53 | 0.05 | 51 | 1005.2 |
| 20260507163006 | 61 | 279 | 1.7 | 5.2 | 0.00 | 0.53 | 0.05 | 47 | 1005.1 |
| 20260507162506 | 61 | 202 | 0.9 | 5.2 | 0.00 | 0.53 | 0.05 | 46 | 1005.1 |
| 20260507162007 | 62 | 223 | 0.9 | 6.1 | 0.00 | 0.53 | 0.05 | 46 | 1005.2 |
| 20260507161506 | 63 | 182 | 3.5 | 6.1 | 0.00 | 0.53 | 0.05 | 45 | 1005.4 |
| 20260507161005 | 62 | 315 | 0.9 | 5.2 | 0.00 | 0.53 | 0.05 | 50 | 1005.4 |
| 20260507160506 | 61 | 239 | 2.6 | 5.2 | 0.00 | 0.53 | 0.05 | 52 | 1005.4 |
| 20260507160007 | 60 | 321 | 0.9 | 6.1 | 0.00 | 0.53 | 0.05 | 53 | 1005.5 |
| 20260507155510 | 60 | 232 | 3.5 | 6.1 | 0.00 | 0.53 | 0.05 | 52 | 1005.5 |
| 20260507155006 | 60 | 299 | 2.6 | 4.3 | 0.00 | 0.53 | 0.05 | 50 | 1005.6 |
| 20260507154504 | 61 | 215 | 2.6 | 5.2 | 0.00 | 0.53 | 0.05 | 48 | 1005.7 |
| 20260507154004 | 60 | 259 | 1.7 | 4.3 | 0.00 | 0.53 | 0.05 | 47 | 1005.8 |
| 20260507153504 | 60 | 266 | 0.9 | 4.3 | 0.00 | 0.53 | 0.05 | 55 | 1005.8 |
| 20260507153006 | 60 | 260 | 0.9 | 5.2 | 0.00 | 0.53 | 0.05 | 51 | 1005.9 |
| 20260507152503 | 60 | 290 | 0.9 | 5.2 | 0.00 | 0.53 | 0.05 | 51 | 1005.9 |
| 20260507152006 | 61 | 346 | 0.9 | 7.8 | 0.00 | 0.53 | 0.05 | 49 | 1005.8 |
| 20260507151502 | 60 | 187 | 0.9 | 7.8 | 0.00 | 0.53 | 0.05 | 46 | 1005.9 |
| 20260507151001 | 61 | 256 | 0.9 | 6.1 | 0.00 | 0.53 | 0.05 | 47 | 1005.9 |
| 20260507150600 | 61 | 332 | 1.7 | 6.1 | 0.00 | 0.53 | 0.05 | 50 | 1005.8 |
| 20260507150100 | 60 | 288 | 0.9 | 4.3 | 0.00 | 0.53 | 0.05 | 53 | 1005.8 |
| 20260507145558 | 60 | 315 | 0.9 | 4.3 | 0.00 | 0.53 | 0.05 | 49 | 1005.9 |
| 20260507145056 | 59 | 277 | 0.9 | 5.2 | 0.00 | 0.53 | 0.05 | 55 | 1005.9 |
| 20260507144559 | 59 | 360 | 2.6 | 5.2 | 0.00 | 0.53 | 0.05 | 52 | 1006.0 |
| 20260507144055 | 59 | 327 | 2.6 | 5.2 | 0.00 | 0.53 | 0.05 | 52 | 1006.0 |
| 20260507143554 | 59 | 319 | 0.9 | 5.2 | 0.00 | 0.53 | 0.05 | 55 | 1006.0 |
| 20260507143102 | 59 | 277 | 1.7 | 5.2 | 0.00 | 0.53 | 0.05 | 55 | 1006.1 |
| 20260507142553 | 58 | 323 | 2.6 | 5.2 | 0.00 | 0.53 | 0.05 | 56 | 1006.1 |
| 20260507142053 | 59 | 305 | 1.7 | 5.2 | 0.00 | 0.53 | 0.05 | 56 | 1006.1 |
| 20260507141552 | 58 | 279 | 1.7 | 4.3 | 0.00 | 0.53 | 0.05 | 63 | 1006.2 |
| 20260507141051 | 58 | 31 | 0.9 | 5.2 | 0.00 | 0.53 | 0.05 | 58 | 1006.4 |
| 20260507140552 | 58 | 283 | 2.6 | 5.2 | 0.00 | 0.53 | 0.05 | 64 | 1006.4 |
| 20260507140048 | 57 | 286 | 0.9 | 6.1 | 0.00 | 0.53 | 0.05 | 63 | 1006.4 |
| 20260507135550 | 56 | 296 | 2.6 | 6.1 | 0.00 | 0.53 | 0.05 | 63 | 1006.5 |
| 20260507135047 | 56 | 351 | 3.5 | 6.1 | 0.00 | 0.53 | 0.05 | 65 | 1006.4 |
| 20260507134545 | 56 | 355 | 1.7 | 5.2 | 0.00 | 0.53 | 0.05 | 63 | 1006.5 |
| 20260507134045 | 56 | 327 | 1.7 | 5.2 | 0.00 | 0.53 | 0.05 | 66 | 1006.5 |
| 20260507133542 | 55 | 263 | 1.7 | 5.2 | 0.00 | 0.53 | 0.05 | 68 | 1006.6 |
| 20260507133042 | 55 | 244 | 2.6 | 6.1 | 0.00 | 0.53 | 0.05 | 69 | 1006.6 |
| 20260507132540 | 55 | 269 | 0.9 | 6.1 | 0.00 | 0.53 | 0.05 | 69 | 1006.7 |
| 20260507132039 | 54 | 275 | 1.7 | 6.1 | 0.00 | 0.53 | 0.05 | 68 | 1006.5 |
| 20260507131550 | 54 | 238 | 0.9 | 5.2 | 0.00 | 0.53 | 0.05 | 68 | 1006.6 |
| 20260507131038 | 54 | 34 | 0.9 | 6.1 | 0.00 | 0.53 | 0.05 | 68 | 1006.6 |
| 20260507130536 | 53 | 276 | 2.6 | 6.1 | 0.00 | 0.53 | 0.05 | 70 | 1006.7 |
| 20260507130040 | 53 | 287 | 0.0 | 5.2 | 0.00 | 0.53 | 0.05 | 71 | 1006.7 |
| 20260507125535 | 53 | 349 | 2.6 | 5.2 | 0.00 | 0.53 | 0.05 | 71 | 1006.6 |
| 20260507125033 | 53 | 288 | 1.7 | 5.2 | 0.00 | 0.53 | 0.05 | 71 | 1006.7 |
| 20260507124532 | 53 | 281 | 0.9 | 3.5 | 0.00 | 0.53 | 0.05 | 73 | 1006.7 |
| 20260507124031 | 52 | 256 | 1.7 | 4.3 | 0.00 | 0.53 | 0.05 | 73 | 1006.7 |
| 20260507123531 | 52 | 273 | 0.9 | 4.3 | 0.00 | 0.53 | 0.05 | 75 | 1006.7 |
| 20260507123031 | 52 | 280 | 0.9 | 5.2 | 0.00 | 0.53 | 0.05 | 74 | 1006.8 |
| 20260507122530 | 51 | 296 | 1.7 | 5.2 | 0.00 | 0.53 | 0.05 | 76 | 1006.8 |
| 20260507122030 | 51 | 337 | 0.0 | 4.3 | 0.00 | 0.53 | 0.05 | 76 | 1006.8 |
| 20260507121530 | 51 | 292 | 0.0 | 3.5 | 0.00 | 0.53 | 0.05 | 76 | 1006.9 |
| 20260507121030 | 51 | 334 | 0.9 | 6.1 | 0.00 | 0.53 | 0.05 | 78 | 1006.9 |
| 20260507120530 | 50 | 328 | 1.7 | 5.2 | 0.00 | 0.53 | 0.05 | 78 | 1006.9 |
| 20260507120029 | 50 | 321 | 0.0 | 3.5 | 0.00 | 0.53 | 0.05 | 79 | 1006.9 |
| 20260507115528 | 50 | 296 | 0.9 | 4.3 | 0.00 | 0.53 | 0.05 | 81 | 1006.8 |
| 20260507115030 | 49 | 277 | 0.0 | 3.5 | 0.00 | 0.53 | 0.05 | 81 | 1006.9 |
| 20260507114526 | 49 | 315 | 0.9 | 4.3 | 0.00 | 0.53 | 0.05 | 82 | 1006.7 |
| 20260507114026 | 49 | 279 | 0.9 | 5.2 | 0.00 | 0.53 | 0.05 | 85 | 1006.8 |
| 20260507113524 | 48 | 328 | 0.9 | 3.5 | 0.00 | 0.53 | 0.05 | 86 | 1006.9 |
| 20260507113024 | 48 | 306 | 1.7 | 3.5 | 0.00 | 0.53 | 0.05 | 89 | 1007.0 |
| 20260507112523 | 47 | 302 | 0.0 | 0.0 | 0.00 | 0.53 | 0.05 | 91 | 1007.0 |
| 20260507112022 | 47 | 281 | 0.0 | 0.0 | 0.00 | 0.53 | 0.05 | 93 | 1007.0 |
| 20260507111521 | 46 | 279 | 0.0 | 0.0 | 0.00 | 0.53 | 0.05 | 94 | 1007.0 |
| 20260507111020 | 46 | 272 | 0.0 | 0.0 | 0.00 | 0.53 | 0.05 | 94 | 1007.1 |
| 20260507110519 | 46 | 277 | 0.0 | 0.0 | 0.00 | 0.53 | 0.05 | 95 | 1007.0 |
| 20260507110020 | 46 | 276 | 0.0 | 0.0 | 0.00 | 0.53 | 0.05 | 95 | 1007.0 |
| 20260507105518 | 45 | 276 | 0.0 | 0.0 | 0.00 | 0.53 | 0.05 | 95 | 1007.2 |
| 20260507105018 | 45 | 276 | 0.0 | 0.0 | 0.00 | 0.53 | 0.05 | 95 | 1007.4 |
| 20260507104517 | 45 | 276 | 0.0 | 0.0 | 0.00 | 0.53 | 0.05 | 95 | 1007.2 |
| 20260507104017 | 45 | 276 | 0.0 | 0.0 | 0.00 | 0.53 | 0.05 | 95 | 1007.1 |
| 20260507103515 | 45 | 276 | 0.0 | 0.0 | 0.00 | 0.53 | 0.05 | 95 | 1007.2 |
| 20260507103026 | 45 | 276 | 0.0 | 0.0 | 0.00 | 0.53 | 0.05 | 95 | 1007.1 |
| 20260507102515 | 44 | 276 | 0.0 | 0.0 | 0.00 | 0.53 | 0.05 | 95 | 1007.1 |
| 20260507102015 | 44 | 264 | 0.0 | 0.0 | 0.00 | 0.53 | 0.05 | 95 | 1007.1 |
| 20260507101514 | 44 | 264 | 0.0 | 0.0 | 0.00 | 0.53 | 0.05 | 95 | 1007.2 |
| 20260507101013 | 44 | 264 | 0.0 | 0.0 | 0.00 | 0.53 | 0.05 | 95 | 1007.1 |
| 20260507100512 | 44 | 264 | 0.0 | 0.0 | 0.00 | 0.53 | 0.05 | 94 | 1007.3 |
| 20260507100011 | 44 | 264 | 0.0 | 0.0 | 0.00 | 0.53 | 0.05 | 94 | 1007.1 |
| 20260507095510 | 44 | 264 | 0.0 | 0.0 | 0.00 | 0.53 | 0.05 | 94 | 1007.0 |
| 20260507095009 | 44 | 264 | 0.0 | 0.0 | 0.00 | 0.53 | 0.05 | 94 | 1006.9 |
| 20260507094511 | 44 | 257 | 0.0 | 0.0 | 0.00 | 0.53 | 0.05 | 94 | 1006.6 |
| 20260507094007 | 44 | 257 | 0.0 | 0.0 | 0.00 | 0.53 | 0.05 | 94 | 1006.6 |
| 20260507093507 | 44 | 257 | 0.0 | 0.0 | 0.00 | 0.53 | 0.05 | 94 | 1006.4 |
| 20260507093006 | 44 | 257 | 0.0 | 0.0 | 0.00 | 0.53 | 0.05 | 94 | 1006.3 |
| 20260507092507 | 44 | 257 | 0.0 | 0.0 | 0.00 | 0.53 | 0.05 | 94 | 1006.6 |
| 20260507092005 | 44 | 205 | 0.0 | 0.0 | 0.00 | 0.53 | 0.05 | 94 | 1006.5 |
| 20260507091505 | 45 | 205 | 0.0 | 0.0 | 0.00 | 0.53 | 0.05 | 94 | 1006.6 |
| 20260507091004 | 45 | 205 | 0.0 | 0.0 | 0.00 | 0.53 | 0.05 | 94 | 1006.6 |
| 20260507090505 | 45 | 205 | 0.0 | 0.0 | 0.00 | 0.53 | 0.05 | 94 | 1006.8 |
| 20260507090005 | 45 | 211 | 0.0 | 0.0 | 0.00 | 0.53 | 0.05 | 94 | 1006.6 |
| 20260507085503 | 45 | 276 | 0.0 | 0.0 | 0.00 | 0.53 | 0.05 | 94 | 1006.4 |
| 20260507085003 | 45 | 276 | 0.0 | 0.0 | 0.00 | 0.53 | 0.05 | 94 | 1006.6 |
| 20260507084501 | 45 | 276 | 0.0 | 0.0 | 0.00 | 0.53 | 0.05 | 94 | 1006.8 |
| 20260507084001 | 45 | 276 | 0.0 | 0.0 | 0.00 | 0.53 | 0.05 | 94 | 1006.8 |
| 20260507083501 | 45 | 276 | 0.0 | 1.7 | 0.00 | 0.53 | 0.05 | 94 | 1006.7 |
| 20260507083102 | 45 | 250 | 0.0 | 1.7 | 0.00 | 0.53 | 0.05 | 94 | 1006.9 |
| 20260507082600 | 45 | 254 | 0.9 | 1.7 | 0.00 | 0.53 | 0.05 | 94 | 1006.7 |
| 20260507082104 | 45 | 243 | 0.0 | 1.7 | 0.00 | 0.53 | 0.05 | 93 | 1006.6 |
| 20260507081600 | 45 | 238 | 0.0 | 1.7 | 0.00 | 0.53 | 0.05 | 93 | 1006.6 |
| 20260507081059 | 45 | 241 | 0.0 | 1.7 | 0.00 | 0.53 | 0.05 | 93 | 1006.3 |
| 20260507080601 | 45 | 253 | 0.0 | 5.2 | 0.00 | 0.53 | 0.05 | 93 | 1006.2 |
| 20260507080114 | 46 | 49 | 0.0 | 5.2 | 0.00 | 0.53 | 0.05 | 93 | 1006.3 |
| 20260507075557 | 46 | 270 | 0.0 | 0.0 | 0.00 | 0.53 | 0.05 | 93 | 1006.4 |
| 20260507075056 | 46 | 296 | 0.0 | 3.5 | 0.00 | 0.53 | 0.05 | 93 | 1006.4 |
| 20260507074556 | 46 | 300 | 0.0 | 3.5 | 0.00 | 0.53 | 0.05 | 93 | 1006.3 |
| 20260507074055 | 46 | 335 | 0.0 | 3.5 | 0.00 | 0.53 | 0.05 | 93 | 1006.4 |
| 20260507073554 | 46 | 239 | 0.0 | 0.0 | 0.00 | 0.53 | 0.05 | 93 | 1006.4 |
| 20260507073053 | 46 | 301 | 0.0 | 0.0 | 0.00 | 0.53 | 0.05 | 93 | 1006.5 |
| 20260507072553 | 46 | 290 | 0.0 | 1.7 | 0.00 | 0.53 | 0.05 | 93 | 1006.5 |
| 20260507072052 | 47 | 253 | 0.0 | 3.5 | 0.00 | 0.53 | 0.05 | 93 | 1006.4 |
| 20260507071608 | 47 | 284 | 0.0 | 3.5 | 0.00 | 0.53 | 0.05 | 93 | 1006.6 |
| 20260507071049 | 47 | 291 | 0.0 | 1.7 | 0.00 | 0.53 | 0.05 | 94 | 1006.4 |
| 20260507070549 | 47 | 298 | 0.0 | 6.1 | 0.00 | 0.53 | 0.05 | 94 | 1006.3 |
| 20260507070049 | 47 | 277 | 0.9 | 6.1 | 0.00 | 0.53 | 0.05 | 94 | 1006.4 |
| 20260507065548 | 47 | 302 | 0.0 | 1.7 | 0.00 | 0.53 | 0.05 | 94 | 1005.9 |
| 20260507065048 | 47 | 320 | 0.0 | 5.2 | 0.00 | 0.53 | 0.05 | 93 | 1005.9 |
| 20260507064545 | 48 | 296 | 1.7 | 4.3 | 0.00 | 0.53 | 0.05 | 94 | 1005.9 |
| 20260507064044 | 48 | 256 | 0.9 | 1.7 | 0.00 | 0.53 | 0.05 | 94 | 1006.0 |
| 20260507063543 | 48 | 336 | 0.0 | 1.7 | 0.00 | 0.53 | 0.05 | 94 | 1005.9 |
| 20260507063045 | 48 | 336 | 0.0 | 1.7 | 0.00 | 0.53 | 0.05 | 94 | 1005.8 |
| 20260507062542 | 48 | 105 | 0.0 | 1.7 | 0.00 | 0.53 | 0.05 | 94 | 1005.7 |
| 20260507062041 | 48 | 321 | 0.0 | 1.7 | 0.00 | 0.53 | 0.05 | 94 | 1005.6 |
| 20260507061541 | 49 | 290 | 0.0 | 0.9 | 0.00 | 0.53 | 0.05 | 94 | 1005.7 |
| 20260507061040 | 49 | 280 | 0.0 | 1.7 | 0.00 | 0.53 | 0.05 | 94 | 1005.4 |
| 20260507060542 | 49 | 284 | 0.0 | 1.7 | 0.00 | 0.53 | 0.05 | 94 | 1005.5 |
| 20260507060044 | 49 | 305 | 0.0 | 1.7 | 0.00 | 0.53 | 0.05 | 94 | 1005.5 |
| 20260507055542 | 49 | 340 | 0.0 | 0.9 | 0.01 | 0.53 | 0.05 | 94 | 1005.2 |
| 20260507055038 | 49 | 340 | 0.0 | 1.7 | 0.01 | 0.53 | 0.05 | 94 | 1005.2 |
| 20260507054538 | 49 | 340 | 0.0 | 1.7 | 0.01 | 0.53 | 0.05 | 93 | 1005.4 |
| 20260507054037 | 49 | 340 | 0.0 | 1.7 | 0.01 | 0.53 | 0.05 | 93 | 1005.4 |
| 20260507053538 | 49 | 313 | 0.0 | 1.7 | 0.02 | 0.53 | 0.05 | 93 | 1005.3 |
| 20260507053105 | 49 | 262 | 0.0 | 1.7 | 0.02 | 0.53 | 0.05 | 93 | 1005.3 |
| 20260507052537 | 49 | 126 | 0.0 | 1.7 | 0.02 | 0.53 | 0.05 | 93 | 1004.9 |
| 20260507052035 | 49 | 43 | 0.0 | 1.7 | 0.02 | 0.53 | 0.05 | 93 | 1005.0 |
| 20260507051542 | 49 | 284 | 0.0 | 1.7 | 0.02 | 0.53 | 0.05 | 94 | 1005.1 |
| 20260507051033 | 50 | 350 | 0.0 | 1.7 | 0.02 | 0.53 | 0.05 | 94 | 1005.1 |
| 20260507050533 | 50 | 329 | 0.0 | 3.5 | 0.03 | 0.53 | 0.05 | 93 | 1005.1 |
| 20260507050036 | 50 | 305 | 0.9 | 3.5 | 0.05 | 0.53 | 0.05 | 94 | 1005.2 |
| 20260507045532 | 50 | 323 | 0.9 | 1.7 | 0.05 | 0.52 | 0.04 | 94 | 1005.4 |
| 20260507045032 | 50 | 292 | 0.0 | 1.7 | 0.05 | 0.52 | 0.04 | 93 | 1005.4 |
| 20260507044532 | 50 | 292 | 0.0 | 4.3 | 0.05 | 0.52 | 0.04 | 94 | 1005.4 |
| 20260507044029 | 51 | 293 | 0.9 | 4.3 | 0.05 | 0.52 | 0.04 | 94 | 1005.2 |
| 20260507043528 | 51 | 322 | 0.0 | 6.1 | 0.04 | 0.51 | 0.03 | 94 | 1005.2 |
| 20260507043028 | 51 | 324 | 0.9 | 6.1 | 0.04 | 0.51 | 0.03 | 93 | 1005.4 |
| 20260507042530 | 51 | 328 | 0.9 | 3.5 | 0.04 | 0.51 | 0.03 | 94 | 1005.4 |
| 20260507042026 | 51 | 281 | 0.9 | 6.1 | 0.04 | 0.51 | 0.03 | 94 | 1005.4 |
| 20260507041525 | 52 | 325 | 1.7 | 6.1 | 0.05 | 0.51 | 0.03 | 94 | 1005.4 |
| 20260507041024 | 52 | 340 | 0.9 | 5.2 | 0.06 | 0.51 | 0.03 | 94 | 1005.3 |
| 20260507040523 | 52 | 307 | 1.7 | 5.2 | 0.07 | 0.50 | 0.02 | 94 | 1005.2 |
| 20260507040027 | 52 | 241 | 1.7 | 4.3 | 0.07 | 0.48 | 0.00 | 94 | 1005.4 |
| 20260507035522 | 53 | 306 | 1.7 | 4.3 | 0.06 | 0.47 | 0.47 | 94 | 1005.4 |
| 20260507035022 | 53 | 326 | 0.9 | 3.5 | 0.07 | 0.47 | 0.47 | 94 | 1004.9 |
| 20260507034532 | 53 | 304 | 0.9 | 3.5 | 0.07 | 0.47 | 0.47 | 94 | 1004.9 |
| 20260507034021 | 53 | 307 | 0.0 | 3.5 | 0.08 | 0.47 | 0.47 | 94 | 1004.9 |
| 20260507033521 | 53 | 229 | 0.9 | 5.2 | 0.10 | 0.47 | 0.47 | 94 | 1004.9 |
| 20260507033034 | 53 | 331 | 0.9 | 6.1 | 0.10 | 0.47 | 0.47 | 93 | 1004.9 |
| 20260507032520 | 54 | 254 | 0.9 | 7.0 | 0.11 | 0.47 | 0.47 | 93 | 1004.7 |
| 20260507032021 | 54 | 288 | 1.7 | 7.0 | 0.11 | 0.47 | 0.47 | 94 | 1004.7 |
| 20260507031520 | 55 | 286 | 2.6 | 6.1 | 0.10 | 0.46 | 0.46 | 94 | 1004.6 |
| 20260507031121 | 55 | 296 | 0.9 | 6.1 | 0.09 | 0.45 | 0.45 | 94 | 1004.6 |
| 20260507030520 | 55 | 237 | 0.9 | 3.5 | 0.06 | 0.42 | 0.42 | 94 | 1004.6 |
| 20260507030025 | 56 | 288 | 0.9 | 4.3 | 0.05 | 0.41 | 0.41 | 94 | 1004.6 |
| 20260507025519 | 56 | 309 | 0.9 | 5.2 | 0.05 | 0.41 | 0.41 | 94 | 1004.4 |
| 20260507025020 | 56 | 306 | 0.0 | 5.2 | 0.04 | 0.40 | 0.40 | 94 | 1004.2 |
| 20260507024520 | 57 | 289 | 0.9 | 4.3 | 0.04 | 0.40 | 0.40 | 94 | 1004.3 |
| 20260507024019 | 58 | 291 | 0.9 | 3.5 | 0.02 | 0.38 | 0.38 | 95 | 1004.4 |
| 20260507023518 | 58 | 348 | 0.0 | 1.7 | 0.01 | 0.37 | 0.37 | 95 | 1004.1 |
| 20260507023025 | 58 | 305 | 0.9 | 1.7 | 0.00 | 0.36 | 0.36 | 95 | 1004.1 |
| 20260507022518 | 58 | 305 | 0.0 | 1.7 | 0.00 | 0.36 | 0.36 | 95 | 1004.1 |
| 20260507022018 | 58 | 315 | 0.0 | 1.7 | 0.00 | 0.36 | 0.36 | 95 | 1004.1 |
| 20260507021518 | 58 | 241 | 0.0 | 1.7 | 0.00 | 0.36 | 0.36 | 95 | 1004.0 |
| 20260507021019 | 58 | 251 | 0.0 | 1.7 | 0.00 | 0.36 | 0.36 | 95 | 1004.0 |
| 20260507020517 | 58 | 238 | 0.0 | 1.7 | 0.00 | 0.36 | 0.36 | 94 | 1003.9 |
| 20260507020021 | 58 | 278 | 0.0 | 0.0 | 0.00 | 0.36 | 0.36 | 94 | 1004.0 |
| 20260507015516 | 58 | 278 | 0.0 | 0.0 | 0.00 | 0.36 | 0.36 | 94 | 1004.0 |
| 20260507015023 | 58 | 278 | 0.0 | 1.7 | 0.00 | 0.36 | 0.36 | 94 | 1004.0 |
| 20260507014516 | 58 | 278 | 0.0 | 1.7 | 0.00 | 0.36 | 0.36 | 94 | 1004.1 |
| 20260507014014 | 58 | 278 | 0.0 | 3.5 | 0.00 | 0.36 | 0.36 | 94 | 1004.2 |
| 20260507013514 | 58 | 286 | 0.9 | 3.5 | 0.00 | 0.36 | 0.36 | 94 | 1004.2 |
| 20260507013015 | 58 | 257 | 0.9 | 3.5 | 0.00 | 0.36 | 0.36 | 94 | 1004.1 |
| 20260507012514 | 58 | 200 | 0.9 | 3.5 | 0.00 | 0.36 | 0.36 | 94 | 1004.1 |
| 20260507012015 | 58 | 217 | 0.9 | 5.2 | 0.00 | 0.36 | 0.36 | 94 | 1004.2 |
| 20260507011514 | 58 | 208 | 0.9 | 5.2 | 0.00 | 0.36 | 0.36 | 94 | 1004.1 |
| 20260507011014 | 58 | 215 | 1.7 | 7.0 | 0.00 | 0.36 | 0.36 | 94 | 1004.2 |
| 20260507010514 | 58 | 230 | 1.7 | 7.0 | 0.00 | 0.36 | 0.36 | 94 | 1004.2 |
| 20260507010022 | 58 | 204 | 3.5 | 7.0 | 0.00 | 0.36 | 0.36 | 94 | 1004.2 |
| 20260507005512 | 58 | 205 | 3.5 | 6.1 | 0.00 | 0.36 | 0.36 | 94 | 1004.2 |
| 20260507005013 | 58 | 200 | 1.7 | 6.1 | 0.00 | 0.36 | 0.36 | 94 | 1004.2 |
| 20260507004514 | 58 | 204 | 3.5 | 7.0 | 0.00 | 0.36 | 0.36 | 94 | 1004.3 |
| 20260507004012 | 58 | 188 | 3.5 | 7.8 | 0.00 | 0.36 | 0.36 | 94 | 1004.2 |
| 20260507003513 | 58 | 225 | 3.5 | 8.7 | 0.00 | 0.36 | 0.36 | 94 | 1004.1 |
| 20260507003011 | 58 | 200 | 3.5 | 8.7 | 0.00 | 0.36 | 0.36 | 94 | 1004.2 |
| 20260507002513 | 58 | 203 | 2.6 | 5.2 | 0.00 | 0.36 | 0.36 | 94 | 1004.2 |
| 20260507002011 | 58 | 170 | 1.7 | 5.2 | 0.00 | 0.36 | 0.36 | 94 | 1004.2 |
| 20260507001511 | 58 | 223 | 1.7 | 8.7 | 0.00 | 0.36 | 0.36 | 94 | 1004.2 |
| 20260507001012 | 58 | 207 | 4.3 | 8.7 | 0.00 | 0.36 | 0.36 | 94 | 1004.2 |
| 20260507000511 | 58 | 123 | 3.5 | 6.1 | 0.00 | 0.36 | 0.36 | 94 | 1004.1 |
| 20260507000015 | 58 | 160 | 1.7 | 6.1 | 0.00 | 0.37 | 0.36 | 94 | 1004.1 |
| 20260506235509 | 58 | 195 | 3.5 | 6.1 | 0.00 | 0.37 | 0.36 | 94 | 1004.1 |
| 20260506235009 | 58 | 200 | 1.7 | 4.3 | 0.00 | 0.37 | 0.36 | 94 | 1004.0 |
| 20260506234510 | 58 | 184 | 0.9 | 7.0 | 0.00 | 0.37 | 0.36 | 94 | 1004.0 |
| 20260506234009 | 58 | 188 | 1.7 | 7.8 | 0.00 | 0.37 | 0.36 | 94 | 1004.0 |
| 20260506233509 | 58 | 142 | 2.6 | 7.8 | 0.00 | 0.37 | 0.36 | 94 | 1004.0 |
| 20260506233009 | 58 | 136 | 3.5 | 8.7 | 0.00 | 0.37 | 0.36 | 95 | 1004.2 |
| 20260506232508 | 58 | 138 | 2.6 | 7.8 | 0.00 | 0.37 | 0.36 | 95 | 1004.1 |
| 20260506232009 | 58 | 144 | 0.9 | 5.2 | 0.01 | 0.37 | 0.36 | 95 | 1004.0 |
| 20260506231507 | 58 | 202 | 0.9 | 5.2 | 0.01 | 0.37 | 0.36 | 95 | 1004.1 |
| 20260506231007 | 58 | 77 | 0.9 | 7.8 | 0.01 | 0.37 | 0.36 | 95 | 1004.2 |
| 20260506230507 | 58 | 223 | 0.9 | 7.8 | 0.02 | 0.37 | 0.36 | 95 | 1004.2 |
| 20260506230007 | 58 | 128 | 1.7 | 10.4 | 0.02 | 0.42 | 0.36 | 95 | 1004.3 |
| 20260506225507 | 58 | 152 | 0.9 | 4.3 | 0.03 | 0.42 | 0.36 | 95 | 1004.3 |
| 20260506225005 | 58 | 135 | 0.0 | 9.6 | 0.03 | 0.42 | 0.36 | 95 | 1004.4 |
| 20260506224504 | 58 | 164 | 1.7 | 9.6 | 0.03 | 0.42 | 0.36 | 95 | 1004.3 |